Time,TemperatureF,DewpointF,PressureIn,WindDirection,WindDirectionDegrees,WindSpeedMPH,WindSpeedGustMPH,Humidity,HourlyPrecipIn,Conditions,Clouds,dailyrainin,SoftwareType,DateUTC
2013-07-05 00:01:00,71.1,70.5,30.17,SSW,211,0.0,0.0,98,0.00,,,0.00,Wunderground v.1.15,2013-07-05 04:01:00,
2013-07-05 00:02:00,71.1,70.5,30.17,WNW,286,0.0,0.0,98,0.00,,,0.00,Wunderground v.1.15,2013-07-05 04:02:00,
2013-07-05 00:04:00,71.1,70.5,30.17,SW,228,0.0,0.0,98,0.00,,,0.00,Wunderground v.1.15,2013-07-05 04:04:00,
2013-07-05 00:09:00,71.1,70.5,30.17,SW,236,0.0,0.0,98,0.00,,,0.00,Wunderground v.1.15,2013-07-05 04:09:00,
2013-07-05 00:15:00,71.1,70.5,30.17,West,265,0.0,0.0,98,0.00,,,0.00,Wunderground v.1.15,2013-07-05 04:15:00,
2013-07-05 00:20:00,71.1,70.5,30.17,SW,222,0.0,0.0,98,0.00,,,0.00,Wunderground v.1.15,2013-07-05 04:20:00,
2013-07-05 00:26:00,71.0,70.4,30.17,SW,227,0.0,0.0,98,0.00,,,0.00,Wunderground v.1.15,2013-07-05 04:26:00,
2013-07-05 00:28:00,71.0,70.1,30.17,SE,146,0.0,0.0,97,0.00,,,0.00,Wunderground v.1.15,2013-07-05 04:28:00,
2013-07-05 00:33:00,71.0,70.1,30.17,SW,224,0.0,0.0,97,0.00,,,0.00,Wunderground v.1.15,2013-07-05 04:33:00,
2013-07-05 00:39:00,71.0,70.1,30.17,SSW,194,0.0,0.0,97,0.00,,,0.00,Wunderground v.1.15,2013-07-05 04:39:00,
2013-07-05 00:45:00,71.0,70.1,30.17,South,184,0.0,0.0,97,0.00,,,0.00,Wunderground v.1.15,2013-07-05 04:45:00,
2013-07-05 00:50:00,70.9,70.0,30.17,SW,231,0.0,0.0,97,0.00,,,0.00,Wunderground v.1.15,2013-07-05 04:50:00,
2013-07-05 00:56:00,70.9,70.0,30.17,West,265,0.0,0.0,97,0.00,,,0.00,Wunderground v.1.15,2013-07-05 04:56:00,
2013-07-05 01:01:00,70.8,69.9,30.17,West,268,0.0,0.0,97,0.00,,,0.00,Wunderground v.1.15,2013-07-05 05:01:00,
2013-07-05 01:07:00,70.8,69.9,30.17,WSW,240,0.0,0.0,97,0.00,,,0.00,Wunderground v.1.15,2013-07-05 05:07:00,
2013-07-05 01:13:00,70.8,69.9,30.17,WSW,258,0.0,0.0,97,0.00,,,0.00,Wunderground v.1.15,2013-07-05 05:13:00,
2013-07-05 01:18:00,70.7,69.8,30.17,SW,223,0.0,0.0,97,0.00,,,0.00,Wunderground v.1.15,2013-07-05 05:18:00,
2013-07-05 01:24:00,70.7,69.8,30.17,WSW,247,0.0,0.0,97,0.00,,,0.00,Wunderground v.1.15,2013-07-05 05:24:00,
2013-07-05 01:29:00,70.6,70.0,30.17,SSW,198,0.0,0.0,98,0.00,,,0.00,Wunderground v.1.15,2013-07-05 05:29:00,
2013-07-05 01:34:00,70.6,70.0,30.17,SSW,205,0.0,0.0,98,0.00,,,0.00,Wunderground v.1.15,2013-07-05 05:34:00,
2013-07-05 01:40:00,70.5,69.9,30.17,South,188,0.0,0.0,98,0.00,,,0.00,Wunderground v.1.15,2013-07-05 05:40:00,
2013-07-05 01:45:00,70.5,69.9,30.17,WNW,300,0.0,0.0,98,0.00,,,0.00,Wunderground v.1.15,2013-07-05 05:45:00,
2013-07-05 01:50:00,70.4,69.8,30.16,SSW,211,0.0,0.0,98,0.00,,,0.00,Wunderground v.1.15,2013-07-05 05:50:00,
2013-07-05 01:56:00,70.4,69.5,30.17,West,273,0.0,0.0,97,0.00,,,0.00,Wunderground v.1.15,2013-07-05 05:56:00,
2013-07-05 02:01:00,70.3,69.7,30.16,South,169,0.0,0.0,98,0.00,,,0.00,Wunderground v.1.15,2013-07-05 06:01:00,
2013-07-05 02:07:00,70.3,69.7,30.16,West,274,0.0,0.0,98,0.00,,,0.00,Wunderground v.1.15,2013-07-05 06:07:00,
2013-07-05 02:13:00,70.2,69.6,30.16,WSW,242,0.0,0.0,98,0.00,,,0.00,Wunderground v.1.15,2013-07-05 06:13:00,
2013-07-05 02:18:00,70.2,69.6,30.16,SW,227,0.0,0.0,98,0.00,,,0.00,Wunderground v.1.15,2013-07-05 06:18:00,
2013-07-05 02:24:00,70.1,69.5,30.16,SSW,205,0.0,0.0,98,0.00,,,0.00,Wunderground v.1.15,2013-07-05 06:24:00,
2013-07-05 02:29:00,70.1,69.5,30.16,West,267,0.0,0.0,98,0.00,,,0.00,Wunderground v.1.15,2013-07-05 06:29:00,
2013-07-05 02:34:00,70.0,69.4,30.16,SW,222,0.0,0.0,98,0.00,,,0.00,Wunderground v.1.15,2013-07-05 06:34:00,
2013-07-05 02:40:00,70.0,69.4,30.17,SSW,211,0.0,0.0,98,0.00,,,0.00,Wunderground v.1.15,2013-07-05 06:40:00,
2013-07-05 02:45:00,70.0,69.4,30.16,South,188,0.0,0.0,98,0.00,,,0.00,Wunderground v.1.15,2013-07-05 06:45:00,
2013-07-05 02:51:00,70.0,69.4,30.16,WSW,242,0.0,0.0,98,0.00,,,0.00,Wunderground v.1.15,2013-07-05 06:51:00,
2013-07-05 02:56:00,70.0,69.4,30.16,WSW,249,0.0,0.0,98,0.00,,,0.00,Wunderground v.1.15,2013-07-05 06:56:00,
2013-07-05 03:02:00,70.1,69.5,30.16,SE,146,0.0,0.0,98,0.00,,,0.00,Wunderground v.1.15,2013-07-05 07:02:00,
2013-07-05 03:07:00,70.1,69.5,30.16,West,281,0.0,0.0,98,0.00,,,0.00,Wunderground v.1.15,2013-07-05 07:07:00,
2013-07-05 03:12:00,70.1,69.5,30.16,West,276,0.0,0.0,98,0.00,,,0.00,Wunderground v.1.15,2013-07-05 07:12:00,
2013-07-05 03:18:00,70.1,69.5,30.16,SW,225,0.0,0.0,98,0.00,,,0.00,Wunderground v.1.15,2013-07-05 07:18:00,
2013-07-05 03:23:00,70.1,69.5,30.16,WSW,238,0.0,0.0,98,0.00,,,0.00,Wunderground v.1.15,2013-07-05 07:23:00,
2013-07-05 03:29:00,70.1,69.5,30.16,SW,221,0.0,0.0,98,0.00,,,0.00,Wunderground v.1.15,2013-07-05 07:29:00,
2013-07-05 03:34:00,70.1,69.5,30.16,WSW,251,0.0,0.0,98,0.00,,,0.00,Wunderground v.1.15,2013-07-05 07:34:00,
2013-07-05 03:39:00,70.1,69.5,30.16,West,278,0.0,0.0,98,0.00,,,0.00,Wunderground v.1.15,2013-07-05 07:39:00,
2013-07-05 03:45:00,70.1,69.5,30.16,SSW,200,0.0,0.0,98,0.00,,,0.00,Wunderground v.1.15,2013-07-05 07:45:00,
2013-07-05 03:50:00,70.1,69.5,30.16,SSW,193,0.0,0.0,98,0.00,,,0.00,Wunderground v.1.15,2013-07-05 07:50:00,
2013-07-05 03:56:00,70.1,69.5,30.16,SW,218,0.0,0.0,98,0.00,,,0.00,Wunderground v.1.15,2013-07-05 07:56:00,
2013-07-05 04:01:00,70.1,69.5,30.16,West,259,0.0,0.0,98,0.00,,,0.00,Wunderground v.1.15,2013-07-05 08:01:00,
2013-07-05 04:06:00,70.1,69.5,30.16,WSW,246,0.0,0.0,98,0.00,,,0.00,Wunderground v.1.15,2013-07-05 08:06:00,
2013-07-05 04:12:00,70.1,69.8,30.16,SSE,147,0.0,0.0,99,0.00,,,0.00,Wunderground v.1.15,2013-07-05 08:12:00,
2013-07-05 04:18:00,70.1,69.8,30.16,NNW,333,0.0,0.0,99,0.00,,,0.00,Wunderground v.1.15,2013-07-05 08:18:00,
2013-07-05 04:24:00,70.1,69.5,30.16,SW,236,0.0,0.0,98,0.00,,,0.00,Wunderground v.1.15,2013-07-05 08:24:00,
2013-07-05 04:29:00,70.1,69.8,30.16,WNW,293,0.0,0.0,99,0.00,,,0.00,Wunderground v.1.15,2013-07-05 08:29:00,
2013-07-05 04:34:00,70.0,69.7,30.16,WSW,257,0.0,0.0,99,0.00,,,0.00,Wunderground v.1.15,2013-07-05 08:34:00,
2013-07-05 04:40:00,70.0,69.7,30.16,West,281,0.0,0.0,99,0.00,,,0.00,Wunderground v.1.15,2013-07-05 08:40:00,
2013-07-05 04:45:00,70.1,69.8,30.16,SW,227,0.0,0.0,99,0.00,,,0.00,Wunderground v.1.15,2013-07-05 08:45:00,
2013-07-05 04:50:00,70.0,69.7,30.16,WSW,253,0.0,0.0,99,0.00,,,0.00,Wunderground v.1.15,2013-07-05 08:50:00,
2013-07-05 04:56:00,70.1,69.8,30.16,WSW,252,0.0,0.0,99,0.00,,,0.00,Wunderground v.1.15,2013-07-05 08:56:00,
2013-07-05 05:02:00,70.1,69.8,30.16,WSW,244,0.0,0.0,99,0.00,,,0.00,Wunderground v.1.15,2013-07-05 09:02:00,
2013-07-05 05:07:00,70.1,69.8,30.17,SSW,198,0.0,0.0,99,0.00,,,0.00,Wunderground v.1.15,2013-07-05 09:07:00,
2013-07-05 05:13:00,70.1,69.8,30.17,SW,227,0.0,0.0,99,0.00,,,0.00,Wunderground v.1.15,2013-07-05 09:13:00,
2013-07-05 05:19:00,70.1,69.8,30.17,West,263,0.0,0.0,99,0.00,,,0.00,Wunderground v.1.15,2013-07-05 09:19:00,
2013-07-05 05:25:00,70.1,69.8,30.17,WSW,252,0.0,0.0,99,0.00,,,0.00,Wunderground v.1.15,2013-07-05 09:25:00,
2013-07-05 05:31:00,70.1,69.8,30.17,SW,235,0.0,0.0,99,0.00,,,0.00,Wunderground v.1.15,2013-07-05 09:31:00,
2013-07-05 05:36:00,70.1,69.8,30.17,SSW,194,0.0,0.0,99,0.00,,,0.00,Wunderground v.1.15,2013-07-05 09:36:00,
2013-07-05 05:42:00,70.1,69.8,30.17,WSW,246,0.0,0.0,99,0.00,,,0.00,Wunderground v.1.15,2013-07-05 09:42:00,
2013-07-05 05:48:00,70.1,69.8,30.17,WSW,244,0.0,0.0,99,0.00,,,0.00,Wunderground v.1.15,2013-07-05 09:48:00,
2013-07-05 05:53:00,70.1,69.8,30.17,WNW,295,0.0,0.0,99,0.00,,,0.00,Wunderground v.1.15,2013-07-05 09:53:00,
2013-07-05 05:59:00,70.1,69.8,30.17,West,274,0.0,0.0,99,0.00,,,0.00,Wunderground v.1.15,2013-07-05 09:59:00,
2013-07-05 06:04:00,70.1,69.8,30.18,West,263,0.0,0.0,99,0.00,,,0.00,Wunderground v.1.15,2013-07-05 10:04:00,
2013-07-05 06:09:00,70.2,69.9,30.18,West,265,0.0,0.0,99,0.00,,,0.00,Wunderground v.1.15,2013-07-05 10:09:00,
2013-07-05 06:14:00,70.3,70.0,30.18,WSW,256,0.0,0.0,99,0.00,,,0.00,Wunderground v.1.15,2013-07-05 10:14:00,
2013-07-05 06:19:00,70.3,70.0,30.18,WSW,246,0.0,0.0,99,0.00,,,0.00,Wunderground v.1.15,2013-07-05 10:19:00,
2013-07-05 06:25:00,70.3,70.0,30.18,SW,217,0.0,0.0,99,0.00,,,0.00,Wunderground v.1.15,2013-07-05 10:25:00,
2013-07-05 06:30:00,70.4,70.1,30.18,West,275,0.0,0.0,99,0.00,,,0.00,Wunderground v.1.15,2013-07-05 10:30:00,
2013-07-05 06:36:00,70.4,70.1,30.18,SSW,198,0.0,0.0,99,0.00,,,0.00,Wunderground v.1.15,2013-07-05 10:36:00,
2013-07-05 06:41:00,70.5,70.2,30.18,SW,224,0.0,0.0,99,0.00,,,0.00,Wunderground v.1.15,2013-07-05 10:41:00,
2013-07-05 06:47:00,70.6,70.3,30.18,West,261,0.0,0.0,99,0.00,,,0.00,Wunderground v.1.15,2013-07-05 10:47:00,
2013-07-05 06:52:00,70.6,70.3,30.18,SW,219,0.0,0.0,99,0.00,,,0.00,Wunderground v.1.15,2013-07-05 10:52:00,
2013-07-05 06:58:00,70.7,70.4,30.18,West,262,0.0,0.0,99,0.00,,,0.00,Wunderground v.1.15,2013-07-05 10:58:00,
2013-07-05 07:03:00,70.8,70.5,30.18,WSW,256,0.0,0.0,99,0.00,,,0.00,Wunderground v.1.15,2013-07-05 11:03:00,
2013-07-05 07:08:00,70.9,70.6,30.18,SSW,209,0.0,0.0,99,0.00,,,0.00,Wunderground v.1.15,2013-07-05 11:08:00,
2013-07-05 07:14:00,71.1,70.8,30.18,SW,229,0.0,0.0,99,0.00,,,0.00,Wunderground v.1.15,2013-07-05 11:14:00,
2013-07-05 07:20:00,71.2,70.9,30.18,West,275,0.0,0.0,99,0.00,,,0.00,Wunderground v.1.15,2013-07-05 11:20:00,
2013-07-05 07:25:00,71.3,71.0,30.17,West,273,0.0,0.0,99,0.00,,,0.00,Wunderground v.1.15,2013-07-05 11:25:00,
2013-07-05 07:31:00,71.6,71.3,30.18,WSW,250,0.0,0.0,99,0.00,,,0.00,Wunderground v.1.15,2013-07-05 11:31:00,
2013-07-05 07:37:00,71.9,71.6,30.18,WNW,290,0.0,0.0,99,0.00,,,0.00,Wunderground v.1.15,2013-07-05 11:37:00,
2013-07-05 07:43:00,72.3,71.7,30.18,West,269,0.0,0.0,98,0.00,,,0.00,Wunderground v.1.15,2013-07-05 11:43:00,
2013-07-05 07:49:00,72.7,72.1,30.18,SSW,196,0.0,0.0,98,0.00,,,0.00,Wunderground v.1.15,2013-07-05 11:49:00,
2013-07-05 07:54:00,73.1,72.5,30.18,South,188,0.0,0.0,98,0.00,,,0.00,Wunderground v.1.15,2013-07-05 11:54:00,
2013-07-05 08:00:00,73.5,72.6,30.18,WSW,250,0.0,0.0,97,0.00,,,0.00,Wunderground v.1.15,2013-07-05 12:00:00,
2013-07-05 08:05:00,73.9,72.7,30.18,SSW,200,0.0,0.0,96,0.00,,,0.00,Wunderground v.1.15,2013-07-05 12:05:00,
2013-07-05 08:10:00,74.3,72.8,30.18,NW,318,0.0,0.0,95,0.00,,,0.00,Wunderground v.1.15,2013-07-05 12:10:00,
2013-07-05 08:16:00,74.9,73.1,30.18,SW,234,0.0,0.0,94,0.00,,,0.00,Wunderground v.1.15,2013-07-05 12:16:00,
2013-07-05 08:21:00,75.4,72.9,30.18,SW,234,0.0,0.0,92,0.00,,,0.00,Wunderground v.1.15,2013-07-05 12:21:00,
2013-07-05 08:27:00,76.1,73.6,30.18,SSW,209,0.0,0.0,92,0.00,,,0.00,Wunderground v.1.15,2013-07-05 12:27:00,
2013-07-05 08:32:00,76.7,74.2,30.18,WNW,286,0.0,0.0,92,0.00,,,0.00,Wunderground v.1.15,2013-07-05 12:32:00,
2013-07-05 08:38:00,77.3,74.1,30.18,WNW,285,0.0,0.0,90,0.00,,,0.00,Wunderground v.1.15,2013-07-05 12:38:00,
2013-07-05 08:44:00,77.6,73.4,30.18,WSW,245,0.0,0.0,87,0.00,,,0.00,Wunderground v.1.15,2013-07-05 12:44:00,
2013-07-05 08:50:00,77.8,74.0,30.18,South,175,0.0,0.0,88,0.00,,,0.00,Wunderground v.1.15,2013-07-05 12:50:00,
2013-07-05 08:55:00,78.1,74.3,30.18,SSW,207,0.0,0.0,88,0.00,,,0.00,Wunderground v.1.15,2013-07-05 12:55:00,
2013-07-05 09:01:00,78.5,74.0,30.18,WNW,290,0.0,0.0,86,0.00,,,0.01,Wunderground v.1.15,2013-07-05 13:01:00,
2013-07-05 09:06:00,78.8,73.9,30.18,West,275,0.0,0.0,85,0.00,,,0.01,Wunderground v.1.15,2013-07-05 13:06:00,
2013-07-05 09:12:00,79.0,74.1,30.18,West,269,0.0,0.0,85,0.00,,,0.01,Wunderground v.1.15,2013-07-05 13:12:00,
2013-07-05 09:17:00,78.9,73.7,30.18,SW,226,0.0,0.0,84,0.00,,,0.01,Wunderground v.1.15,2013-07-05 13:17:00,
2013-07-05 09:23:00,79.0,74.1,30.18,West,274,0.0,0.0,85,0.00,,,0.01,Wunderground v.1.15,2013-07-05 13:23:00,
2013-07-05 09:29:00,79.2,73.9,30.17,South,186,0.0,0.0,84,0.00,,,0.01,Wunderground v.1.15,2013-07-05 13:29:00,
2013-07-05 09:34:00,79.4,74.5,30.17,NNW,343,0.0,0.0,85,0.00,,,0.01,Wunderground v.1.15,2013-07-05 13:34:00,
2013-07-05 09:39:00,79.8,75.2,30.17,WSW,257,0.0,0.0,86,0.00,,,0.01,Wunderground v.1.15,2013-07-05 13:39:00,
2013-07-05 09:45:00,80.4,74.8,30.17,West,260,0.0,0.0,83,0.00,,,0.01,Wunderground v.1.15,2013-07-05 13:45:00,
2013-07-05 09:50:00,80.5,74.5,30.17,South,184,0.0,0.0,82,0.00,,,0.01,Wunderground v.1.15,2013-07-05 13:50:00,
2013-07-05 09:56:00,80.7,74.7,30.17,SW,230,0.0,0.0,82,0.00,,,0.01,Wunderground v.1.15,2013-07-05 13:56:00,
2013-07-05 10:01:00,80.7,75.1,30.17,West,265,0.0,0.0,83,0.00,,,0.01,Wunderground v.1.15,2013-07-05 14:01:00,
2013-07-05 10:06:00,80.7,74.7,30.17,SE,146,0.0,0.0,82,0.00,,,0.01,Wunderground v.1.15,2013-07-05 14:06:00,
2013-07-05 10:12:00,80.8,74.8,30.17,WSW,240,0.0,0.0,82,0.00,,,0.01,Wunderground v.1.15,2013-07-05 14:12:00,
2013-07-05 10:17:00,80.9,75.2,30.17,SSE,147,0.0,0.0,83,0.00,,,0.01,Wunderground v.1.15,2013-07-05 14:17:00,
2013-07-05 10:23:00,80.7,74.7,30.17,West,275,0.0,0.0,82,0.00,,,0.01,Wunderground v.1.15,2013-07-05 14:23:00,
2013-07-05 10:28:00,80.8,74.4,30.17,South,188,0.0,0.0,81,0.00,,,0.01,Wunderground v.1.15,2013-07-05 14:28:00,
2013-07-05 10:33:00,81.1,75.1,30.17,SW,224,0.0,0.0,82,0.00,,,0.01,Wunderground v.1.15,2013-07-05 14:33:00,
2013-07-05 10:39:00,81.4,75.0,30.17,South,191,0.0,0.0,81,0.00,,,0.01,Wunderground v.1.15,2013-07-05 14:39:00,
2013-07-05 10:45:00,81.2,74.8,30.17,SE,137,0.0,0.0,81,0.00,,,0.01,Wunderground v.1.15,2013-07-05 14:45:00,
2013-07-05 10:50:00,81.3,75.3,30.17,SSW,196,0.0,0.0,82,0.00,,,0.01,Wunderground v.1.15,2013-07-05 14:50:00,
2013-07-05 10:55:00,81.5,74.4,30.17,WSW,243,0.0,0.0,79,0.00,,,0.01,Wunderground v.1.15,2013-07-05 14:55:00,
2013-07-05 11:01:00,81.4,74.3,30.17,SSW,199,0.0,0.0,79,0.00,,,0.01,Wunderground v.1.15,2013-07-05 15:01:00,
2013-07-05 11:06:00,81.6,74.8,30.17,NW,310,0.0,0.0,80,0.00,,,0.01,Wunderground v.1.15,2013-07-05 15:06:00,
2013-07-05 11:11:00,81.9,75.5,30.17,WSW,251,0.0,0.0,81,0.00,,,0.01,Wunderground v.1.15,2013-07-05 15:11:00,
2013-07-05 11:17:00,81.9,75.1,30.17,WNW,286,0.0,0.0,80,0.00,,,0.01,Wunderground v.1.15,2013-07-05 15:17:00,
2013-07-05 11:22:00,82.1,74.9,30.17,SSE,148,0.0,0.0,79,0.00,,,0.01,Wunderground v.1.15,2013-07-05 15:22:00,
2013-07-05 11:28:00,82.4,75.2,30.17,WSW,244,0.0,0.0,79,0.00,,,0.01,Wunderground v.1.15,2013-07-05 15:28:00,
2013-07-05 11:33:00,82.4,75.2,30.17,West,261,0.0,0.0,79,0.00,,,0.01,Wunderground v.1.15,2013-07-05 15:33:00,
2013-07-05 11:39:00,82.2,75.0,30.17,SW,218,0.0,0.0,79,0.00,,,0.01,Wunderground v.1.15,2013-07-05 15:39:00,
2013-07-05 11:45:00,82.3,75.5,30.16,SSE,158,0.0,0.0,80,0.00,,,0.01,Wunderground v.1.15,2013-07-05 15:45:00,
2013-07-05 11:50:00,82.5,75.3,30.16,WSW,250,0.0,0.0,79,0.00,,,0.01,Wunderground v.1.15,2013-07-05 15:50:00,
2013-07-05 11:52:00,82.6,75.8,30.17,South,189,0.0,0.0,80,0.00,,,0.01,Wunderground v.1.15,2013-07-05 15:52:00,
2013-07-05 11:57:00,82.8,75.6,30.17,West,268,0.0,0.0,79,0.00,,,0.01,Wunderground v.1.15,2013-07-05 15:57:00,
2013-07-05 12:02:00,82.7,75.5,30.16,South,190,0.0,0.0,79,0.00,,,0.01,Wunderground v.1.15,2013-07-05 16:02:00,
2013-07-05 12:07:00,82.8,74.8,30.16,West,260,0.0,0.0,77,0.00,,,0.01,Wunderground v.1.15,2013-07-05 16:07:00,
2013-07-05 12:13:00,83.0,75.8,30.16,South,185,0.0,0.0,79,0.00,,,0.01,Wunderground v.1.15,2013-07-05 16:13:00,
2013-07-05 12:18:00,83.1,75.1,30.16,WNW,284,0.0,0.0,77,0.00,,,0.01,Wunderground v.1.15,2013-07-05 16:18:00,
2013-07-05 12:24:00,83.1,75.5,30.16,WNW,300,0.0,0.0,78,0.00,,,0.01,Wunderground v.1.15,2013-07-05 16:24:00,
2013-07-05 12:29:00,83.2,76.0,30.16,South,184,0.0,0.0,79,0.00,,,0.01,Wunderground v.1.15,2013-07-05 16:29:00,
2013-07-05 12:34:00,83.3,74.9,30.16,SW,236,0.0,0.0,76,0.00,,,0.01,Wunderground v.1.15,2013-07-05 16:34:00,
2013-07-05 12:40:00,83.3,75.3,30.16,South,171,0.0,0.0,77,0.00,,,0.01,Wunderground v.1.15,2013-07-05 16:40:00,
2013-07-05 12:45:00,83.4,76.2,30.15,West,277,0.0,0.0,79,0.00,,,0.01,Wunderground v.1.15,2013-07-05 16:45:00,
2013-07-05 12:51:00,83.3,75.7,30.15,West,259,0.0,0.0,78,0.00,,,0.01,Wunderground v.1.15,2013-07-05 16:51:00,
2013-07-05 12:56:00,83.6,76.4,30.15,SSW,207,0.0,0.0,79,0.00,,,0.01,Wunderground v.1.15,2013-07-05 16:56:00,
2013-07-05 13:02:00,83.3,75.7,30.15,SW,226,0.0,0.0,78,0.00,,,0.01,Wunderground v.1.15,2013-07-05 17:02:00,
2013-07-05 13:07:00,83.1,75.5,30.15,SW,226,0.0,0.0,78,0.00,,,0.01,Wunderground v.1.15,2013-07-05 17:07:00,
2013-07-05 13:12:00,83.3,76.1,30.15,WSW,239,0.0,0.0,79,0.00,,,0.01,Wunderground v.1.15,2013-07-05 17:12:00,
2013-07-05 13:18:00,83.7,76.5,30.15,SSW,209,0.0,0.0,79,0.00,,,0.01,Wunderground v.1.15,2013-07-05 17:18:00,
2013-07-05 13:23:00,83.7,75.7,30.15,WSW,254,0.0,0.0,77,0.00,,,0.01,Wunderground v.1.15,2013-07-05 17:23:00,
2013-07-05 13:29:00,84.1,75.7,30.15,SW,234,0.0,0.0,76,0.00,,,0.01,Wunderground v.1.15,2013-07-05 17:29:00,
2013-07-05 13:34:00,84.4,76.8,30.15,WSW,245,0.0,0.0,78,0.00,,,0.01,Wunderground v.1.15,2013-07-05 17:34:00,
2013-07-05 13:40:00,84.4,76.0,30.15,South,186,0.0,0.0,76,0.00,,,0.01,Wunderground v.1.15,2013-07-05 17:40:00,
2013-07-05 13:45:00,84.2,75.4,30.14,WSW,254,0.0,0.0,75,0.00,,,0.01,Wunderground v.1.15,2013-07-05 17:45:00,
2013-07-05 13:51:00,84.1,75.3,30.14,SSW,205,0.0,0.0,75,0.00,,,0.01,Wunderground v.1.15,2013-07-05 17:51:00,
2013-07-05 13:56:00,84.0,76.0,30.14,NW,306,0.0,0.0,77,0.00,,,0.01,Wunderground v.1.15,2013-07-05 17:56:00,
2013-07-05 14:02:00,84.2,75.8,30.14,WSW,255,0.0,0.0,76,0.00,,,0.01,Wunderground v.1.15,2013-07-05 18:02:00,
2013-07-05 14:08:00,84.3,75.9,30.14,SSW,193,0.0,0.0,76,0.00,,,0.01,Wunderground v.1.15,2013-07-05 18:08:00,
2013-07-05 14:13:00,84.3,75.5,30.14,South,181,0.0,0.0,75,0.00,,,0.01,Wunderground v.1.15,2013-07-05 18:13:00,
2013-07-05 14:19:00,83.9,75.9,30.14,WSW,238,0.0,0.0,77,0.00,,,0.01,Wunderground v.1.15,2013-07-05 18:19:00,
2013-07-05 14:25:00,84.1,75.3,30.14,South,190,0.0,0.0,75,0.00,,,0.01,Wunderground v.1.15,2013-07-05 18:25:00,
2013-07-05 14:30:00,84.0,76.0,30.14,SW,234,0.0,0.0,77,0.00,,,0.01,Wunderground v.1.15,2013-07-05 18:30:00,
2013-07-05 14:36:00,84.2,75.8,30.13,SW,218,0.0,0.0,76,0.00,,,0.01,Wunderground v.1.15,2013-07-05 18:36:00,
2013-07-05 14:42:00,84.6,75.8,30.13,SW,227,0.0,0.0,75,0.00,,,0.01,Wunderground v.1.15,2013-07-05 18:42:00,
2013-07-05 14:47:00,84.6,75.8,30.13,WNW,286,0.0,0.0,75,0.00,,,0.01,Wunderground v.1.15,2013-07-05 18:47:00,
2013-07-05 14:53:00,84.5,75.7,30.13,SW,222,0.0,0.0,75,0.00,,,0.01,Wunderground v.1.15,2013-07-05 18:53:00,
2013-07-05 14:59:00,84.2,75.4,30.13,WNW,295,0.0,0.0,75,0.00,,,0.01,Wunderground v.1.15,2013-07-05 18:59:00,
2013-07-05 15:04:00,84.0,75.6,30.13,West,278,0.0,0.0,76,0.00,,,0.01,Wunderground v.1.15,2013-07-05 19:04:00,
2013-07-05 15:10:00,83.7,75.3,30.13,South,189,0.0,0.0,76,0.00,,,0.01,Wunderground v.1.15,2013-07-05 19:10:00,
2013-07-05 15:15:00,83.4,75.0,30.13,ESE,120,0.0,0.0,76,0.00,,,0.01,Wunderground v.1.15,2013-07-05 19:15:00,
2013-07-05 15:21:00,83.4,75.0,30.12,South,183,0.0,0.0,76,0.00,,,0.01,Wunderground v.1.15,2013-07-05 19:21:00,
2013-07-05 15:26:00,83.3,74.9,30.12,WSW,250,0.0,0.0,76,0.00,,,0.01,Wunderground v.1.15,2013-07-05 19:26:00,
2013-07-05 15:32:00,83.2,75.2,30.12,SSW,205,0.0,0.0,77,0.00,,,0.01,Wunderground v.1.15,2013-07-05 19:32:00,
2013-07-05 15:37:00,83.3,74.9,30.12,WNW,282,0.0,0.0,76,0.00,,,0.01,Wunderground v.1.15,2013-07-05 19:37:00,
2013-07-05 15:43:00,83.4,75.8,30.12,North,360,0.0,0.0,78,0.00,,,0.01,Wunderground v.1.15,2013-07-05 19:43:00,
2013-07-05 15:48:00,83.6,75.2,30.11,South,188,0.0,0.0,76,0.00,,,0.01,Wunderground v.1.15,2013-07-05 19:48:00,
2013-07-05 15:53:00,82.9,75.3,30.11,West,261,0.0,0.0,78,0.00,,,0.01,Wunderground v.1.15,2013-07-05 19:53:00,
2013-07-05 15:59:00,82.5,74.9,30.11,SSE,165,0.0,0.0,78,0.00,,,0.01,Wunderground v.1.15,2013-07-05 19:59:00,
2013-07-05 16:04:00,82.2,74.7,30.11,SSW,213,0.0,0.0,78,0.00,,,0.01,Wunderground v.1.15,2013-07-05 20:04:00,
2013-07-05 16:09:00,82.4,75.2,30.11,SSW,207,0.0,0.0,79,0.00,,,0.01,Wunderground v.1.15,2013-07-05 20:09:00,
2013-07-05 16:15:00,82.5,75.3,30.11,South,182,0.0,0.0,79,0.00,,,0.01,Wunderground v.1.15,2013-07-05 20:15:00,
2013-07-05 16:20:00,82.6,75.4,30.11,SW,232,0.0,0.0,79,0.00,,,0.01,Wunderground v.1.15,2013-07-05 20:20:00,
2013-07-05 16:23:00,82.8,75.6,30.11,SSE,155,0.0,0.0,79,0.00,,,0.01,Wunderground v.1.15,2013-07-05 20:23:00,
2013-07-05 16:28:00,82.7,74.4,30.11,South,177,0.0,0.0,76,0.00,,,0.01,Wunderground v.1.15,2013-07-05 20:28:00,
2013-07-05 16:33:00,82.4,74.8,30.11,South,191,0.0,0.0,78,0.00,,,0.01,Wunderground v.1.15,2013-07-05 20:33:00,
2013-07-05 16:39:00,81.8,74.3,30.11,West,264,0.0,0.0,78,0.00,,,0.01,Wunderground v.1.15,2013-07-05 20:39:00,
2013-07-05 16:45:00,81.9,75.1,30.10,West,270,0.0,0.0,80,0.00,,,0.01,Wunderground v.1.15,2013-07-05 20:45:00,
2013-07-05 16:51:00,81.8,74.6,30.10,SW,234,0.0,0.0,79,0.00,,,0.01,Wunderground v.1.15,2013-07-05 20:51:00,
2013-07-05 16:57:00,81.9,75.1,30.10,SW,226,0.0,0.0,80,0.00,,,0.01,Wunderground v.1.15,2013-07-05 20:57:00,
2013-07-05 17:02:00,81.7,74.2,30.10,SSW,209,0.0,0.0,78,0.00,,,0.01,Wunderground v.1.15,2013-07-05 21:02:00,
2013-07-05 17:08:00,81.2,74.4,30.10,SSW,205,0.0,0.0,80,0.00,,,0.01,Wunderground v.1.15,2013-07-05 21:08:00,
2013-07-05 17:13:00,81.1,74.7,30.10,SSW,213,0.0,0.0,81,0.00,,,0.01,Wunderground v.1.15,2013-07-05 21:13:00,
2013-07-05 17:18:00,81.1,74.3,30.10,SW,217,0.0,0.0,80,0.00,,,0.01,Wunderground v.1.15,2013-07-05 21:18:00,
2013-07-05 17:24:00,80.7,74.0,30.10,SSW,211,0.0,0.0,80,0.00,,,0.01,Wunderground v.1.15,2013-07-05 21:24:00,
2013-07-05 17:29:00,80.6,74.2,30.11,SSE,151,0.0,0.0,81,0.00,,,0.01,Wunderground v.1.15,2013-07-05 21:29:00,
2013-07-05 17:35:00,80.5,73.8,30.10,SW,236,0.0,0.0,80,0.00,,,0.01,Wunderground v.1.15,2013-07-05 21:35:00,
2013-07-05 17:41:00,80.5,74.1,30.10,SSW,210,0.0,0.0,81,0.00,,,0.01,Wunderground v.1.15,2013-07-05 21:41:00,
2013-07-05 17:46:00,80.5,74.1,30.10,NNE,19,0.0,0.0,81,0.00,,,0.01,Wunderground v.1.15,2013-07-05 21:46:00,
2013-07-05 17:52:00,80.2,73.8,30.10,SW,223,0.0,0.0,81,0.00,,,0.01,Wunderground v.1.15,2013-07-05 21:52:00,
2013-07-05 17:57:00,80.2,73.8,30.10,SSW,196,0.0,0.0,81,0.00,,,0.01,Wunderground v.1.15,2013-07-05 21:57:00,
2013-07-05 18:03:00,80.3,74.3,30.10,WSW,247,0.0,0.0,82,0.00,,,0.01,Wunderground v.1.15,2013-07-05 22:03:00,
2013-07-05 18:09:00,80.0,73.6,30.10,West,270,0.0,0.0,81,0.00,,,0.01,Wunderground v.1.15,2013-07-05 22:09:00,
2013-07-05 18:14:00,79.7,73.7,30.10,North,360,0.0,0.0,82,0.00,,,0.01,Wunderground v.1.15,2013-07-05 22:14:00,
2013-07-05 18:20:00,79.6,73.6,30.10,SW,223,0.0,0.0,82,0.00,,,0.01,Wunderground v.1.15,2013-07-05 22:20:00,
2013-07-05 18:25:00,79.4,73.4,30.10,SSW,205,0.0,0.0,82,0.00,,,0.01,Wunderground v.1.15,2013-07-05 22:25:00,
2013-07-05 18:30:00,79.1,73.5,30.10,South,188,0.0,0.0,83,0.00,,,0.01,Wunderground v.1.15,2013-07-05 22:30:00,
2013-07-05 18:36:00,78.8,73.2,30.10,SW,225,0.0,0.0,83,0.00,,,0.01,Wunderground v.1.15,2013-07-05 22:36:00,
2013-07-05 18:42:00,78.6,73.0,30.10,WSW,257,0.0,0.0,83,0.00,,,0.01,Wunderground v.1.15,2013-07-05 22:42:00,
2013-07-05 18:48:00,78.3,73.1,30.10,NNW,329,0.0,0.0,84,0.00,,,0.01,Wunderground v.1.15,2013-07-05 22:48:00,
2013-07-05 18:53:00,77.6,72.4,30.10,SSE,164,0.0,0.0,84,0.00,,,0.01,Wunderground v.1.15,2013-07-05 22:53:00,
2013-07-05 18:59:00,76.7,72.2,30.10,SSW,193,0.0,0.0,86,0.00,,,0.01,Wunderground v.1.15,2013-07-05 22:59:00,
2013-07-05 19:05:00,75.9,71.8,30.09,SW,234,0.0,0.0,87,0.00,,,0.01,Wunderground v.1.15,2013-07-05 23:05:00,
2013-07-05 19:10:00,75.3,71.5,30.09,West,275,0.0,0.0,88,0.00,,,0.01,Wunderground v.1.15,2013-07-05 23:10:00,
2013-07-05 19:15:00,74.9,71.4,30.09,WSW,252,0.0,0.0,89,0.00,,,0.01,Wunderground v.1.15,2013-07-05 23:15:00,
2013-07-05 19:21:00,74.6,71.5,30.09,WSW,248,0.0,0.0,90,0.00,,,0.01,Wunderground v.1.15,2013-07-05 23:21:00,
2013-07-05 19:26:00,74.3,71.5,30.09,WNW,302,0.0,0.0,91,0.00,,,0.01,Wunderground v.1.15,2013-07-05 23:26:00,
2013-07-05 19:32:00,74.0,71.2,30.09,South,187,0.0,0.0,91,0.00,,,0.01,Wunderground v.1.15,2013-07-05 23:32:00,
2013-07-05 19:38:00,73.8,71.3,30.09,SW,233,0.0,0.0,92,0.00,,,0.01,Wunderground v.1.15,2013-07-05 23:38:00,
2013-07-05 19:43:00,73.6,71.1,30.09,ESE,105,0.0,0.0,92,0.00,,,0.01,Wunderground v.1.15,2013-07-05 23:43:00,
2013-07-05 19:49:00,73.3,70.8,30.09,WNW,286,0.0,0.0,92,0.00,,,0.01,Wunderground v.1.15,2013-07-05 23:49:00,
2013-07-05 19:54:00,73.2,71.1,30.09,SSW,198,0.0,0.0,93,0.00,,,0.01,Wunderground v.1.15,2013-07-05 23:54:00,
2013-07-05 20:00:00,73.0,70.9,30.09,SW,227,0.0,0.0,93,0.00,,,0.01,Wunderground v.1.15,2013-07-06 00:00:00,
2013-07-05 20:06:00,72.8,70.7,30.09,West,261,0.0,0.0,93,0.00,,,0.01,Wunderground v.1.15,2013-07-06 00:06:00,
2013-07-05 20:11:00,72.7,70.9,30.08,WSW,237,0.0,0.0,94,0.00,,,0.01,Wunderground v.1.15,2013-07-06 00:11:00,
2013-07-05 20:17:00,72.6,70.8,30.08,WSW,254,0.0,0.0,94,0.00,,,0.01,Wunderground v.1.15,2013-07-06 00:17:00,
2013-07-05 20:22:00,72.5,70.7,30.08,SSW,213,0.0,0.0,94,0.00,,,0.01,Wunderground v.1.15,2013-07-06 00:22:00,
2013-07-05 20:27:00,72.4,70.6,30.08,West,260,0.0,0.0,94,0.00,,,0.01,Wunderground v.1.15,2013-07-06 00:27:00,
2013-07-05 20:33:00,72.3,70.5,30.09,South,175,0.0,0.0,94,0.00,,,0.01,Wunderground v.1.15,2013-07-06 00:33:00,
2013-07-05 20:39:00,72.2,70.7,30.09,WNW,300,0.0,0.0,95,0.00,,,0.01,Wunderground v.1.15,2013-07-06 00:39:00,
2013-07-05 20:45:00,72.2,70.7,30.09,SSW,209,0.0,0.0,95,0.00,,,0.01,Wunderground v.1.15,2013-07-06 00:45:00,
2013-07-05 20:51:00,72.2,70.7,30.09,WSW,250,0.0,0.0,95,0.00,,,0.01,Wunderground v.1.15,2013-07-06 00:51:00,
2013-07-05 20:53:00,72.2,70.7,30.09,SSW,197,0.0,0.0,95,0.00,,,0.01,Wunderground v.1.15,2013-07-06 00:53:00,
2013-07-05 20:59:00,72.2,70.7,30.09,SSW,213,0.0,0.0,95,0.00,,,0.01,Wunderground v.1.15,2013-07-06 00:59:00,
2013-07-05 21:04:00,72.2,70.7,30.09,West,275,0.0,0.0,95,0.00,,,0.01,Wunderground v.1.15,2013-07-06 01:04:00,
2013-07-05 21:09:00,72.2,71.0,30.09,ESE,104,0.0,0.0,96,0.00,,,0.01,Wunderground v.1.15,2013-07-06 01:09:00,
2013-07-05 21:15:00,72.2,71.0,30.09,WSW,253,0.0,0.0,96,0.00,,,0.01,Wunderground v.1.15,2013-07-06 01:15:00,
2013-07-05 21:20:00,72.2,71.0,30.10,SW,215,0.0,0.0,96,0.00,,,0.01,Wunderground v.1.15,2013-07-06 01:20:00,
2013-07-05 21:26:00,72.2,71.0,30.10,WSW,256,0.0,0.0,96,0.00,,,0.01,Wunderground v.1.15,2013-07-06 01:26:00,
2013-07-05 21:31:00,72.2,71.0,30.10,WSW,240,0.0,0.0,96,0.00,,,0.01,Wunderground v.1.15,2013-07-06 01:31:00,
2013-07-05 21:36:00,72.2,71.0,30.10,WSW,240,0.0,0.0,96,0.00,,,0.01,Wunderground v.1.15,2013-07-06 01:36:00,
2013-07-05 21:42:00,72.3,71.4,30.10,SW,215,0.0,0.0,97,0.00,,,0.01,Wunderground v.1.15,2013-07-06 01:42:00,
2013-07-05 21:47:00,72.3,71.4,30.10,SW,222,0.0,0.0,97,0.00,,,0.01,Wunderground v.1.15,2013-07-06 01:47:00,
2013-07-05 21:53:00,72.3,71.4,30.10,East,98,0.0,0.0,97,0.00,,,0.01,Wunderground v.1.15,2013-07-06 01:53:00,
2013-07-05 21:58:00,72.4,71.5,30.10,WSW,254,0.0,0.0,97,0.00,,,0.01,Wunderground v.1.15,2013-07-06 01:58:00,
2013-07-05 22:03:00,72.4,71.5,30.10,WNW,302,0.0,0.0,97,0.00,,,0.01,Wunderground v.1.15,2013-07-06 02:03:00,
2013-07-05 22:09:00,72.4,71.5,30.11,WNW,284,0.0,0.0,97,0.00,,,0.01,Wunderground v.1.15,2013-07-06 02:09:00,
2013-07-05 22:13:00,72.4,71.5,30.11,SW,231,0.0,0.0,97,0.00,,,0.01,Wunderground v.1.15,2013-07-06 02:13:00,
2013-07-05 22:18:00,72.4,71.5,30.10,WSW,242,0.0,0.0,97,0.00,,,0.01,Wunderground v.1.15,2013-07-06 02:18:00,
2013-07-05 22:24:00,72.4,71.5,30.10,WSW,257,0.0,0.0,97,0.00,,,0.01,Wunderground v.1.15,2013-07-06 02:24:00,
2013-07-05 22:29:00,72.3,71.1,30.10,East,91,0.0,0.0,96,0.00,,,0.01,Wunderground v.1.15,2013-07-06 02:29:00,
2013-07-05 22:34:00,72.3,71.1,30.10,SSW,196,0.0,0.0,96,0.00,,,0.01,Wunderground v.1.15,2013-07-06 02:34:00,
2013-07-05 22:39:00,72.3,71.1,30.10,WSW,237,0.0,0.0,96,0.00,,,0.01,Wunderground v.1.15,2013-07-06 02:39:00,
2013-07-05 22:45:00,72.2,71.0,30.10,SW,223,0.0,0.0,96,0.00,,,0.01,Wunderground v.1.15,2013-07-06 02:45:00,
2013-07-05 22:48:00,72.2,71.0,30.10,SW,219,0.0,0.0,96,0.00,,,0.01,Wunderground v.1.15,2013-07-06 02:48:00,
2013-07-05 22:54:00,72.2,71.3,30.10,WSW,246,0.0,0.0,97,0.00,,,0.01,Wunderground v.1.15,2013-07-06 02:54:00,
2013-07-05 22:55:00,72.2,71.3,30.10,SSW,205,0.0,0.0,97,0.00,,,0.01,Wunderground v.1.15,2013-07-06 02:55:00,
2013-07-05 23:00:00,72.3,71.4,30.10,SSW,203,0.0,0.0,97,0.00,,,0.01,Wunderground v.1.15,2013-07-06 03:00:00,
2013-07-05 23:06:00,72.2,71.3,30.09,West,281,0.0,0.0,97,0.00,,,0.01,Wunderground v.1.15,2013-07-06 03:06:00,
2013-07-05 23:11:00,72.2,71.3,30.09,SSW,205,0.0,0.0,97,0.00,,,0.01,Wunderground v.1.15,2013-07-06 03:11:00,
2013-07-05 23:17:00,72.2,71.3,30.09,WSW,252,0.0,0.0,97,0.00,,,0.01,Wunderground v.1.15,2013-07-06 03:17:00,
2013-07-05 23:22:00,72.1,71.2,30.09,NNE,28,0.0,0.0,97,0.00,,,0.01,Wunderground v.1.15,2013-07-06 03:22:00,
2013-07-05 23:28:00,72.1,71.2,30.10,SSW,213,0.0,0.0,97,0.00,,,0.01,Wunderground v.1.15,2013-07-06 03:28:00,
2013-07-05 23:33:00,72.1,71.2,30.10,West,276,0.0,0.0,97,0.00,,,0.01,Wunderground v.1.15,2013-07-06 03:33:00,
2013-07-05 23:39:00,72.1,71.2,30.10,West,276,0.0,0.0,97,0.00,,,0.01,Wunderground v.1.15,2013-07-06 03:39:00,
2013-07-05 23:44:00,72.1,71.2,30.09,WSW,238,0.0,0.0,97,0.00,,,0.01,Wunderground v.1.15,2013-07-06 03:44:00,
2013-07-05 23:50:00,72.0,71.1,30.09,WSW,257,0.0,0.0,97,0.00,,,0.01,Wunderground v.1.15,2013-07-06 03:50:00,
2013-07-05 23:55:00,72.0,71.1,30.10,WNW,286,0.0,0.0,97,0.00,,,0.01,Wunderground v.1.15,2013-07-06 03:55:00,